CZ-6A DEB, 61472

Orbit data source: Space-Track

CZ-6A DEB, 61472 is space debris in LEO originally from a launch on Tue, 06 Aug 2024 UTC launched from the Taiyaun Space Center, China (TSC). Debris objects in space refer to the collection of defunct objects orbiting the Earth. Examples of debris include non-operational satellites, rocket bodies, and fragments generated from explosions, collisions, or faulty payload assembly.

Loading next visibility...
Identifier
61472, 2024-140AAE
Orbit
LEO
Country
Flag of CNCN / PRC
Related business
Manufacturer
SAST
Mission
Spacecraft
Bus & Motor
Unknown
Mass
Unknown
Launch date (UTC)
2024-08-06 (1 year ago)
Launch vehicle
Unknown
Launch site
Taiyaun Space Center, China (TSC)
Object type
Payload
Rocket body
Debris
Shape & HBR
Unknown
Radar Cross Section
Small (<0.1 m²)

Expand to show TLE details & history
Last TLE update: 17 hours ago

TLE from 17 hours ago
0 CZ-6A DEB
1 61472U 24140AAE 25261.12099251  .00001325  00000-0  10212-2 0  9995
2 61472  89.0476 310.4603 0234320  68.8957 293.7086 13.80317866 52342
Epoch: 2025-09-18T02:54Z
TLE epoch observation values (Epoch: 2025-09-18T02:54:13.752Z)
Latitude
-0.00013°
Longitude
-90.38414°
Altitude
900.006 km
Speed
7.435 km/s
True Right ascension
20h 41m 50s
True Declination
0° 00' 00"
Sunlit
Object was in full shadow at epoch
Visualization orbit readout
Latitude
Unknown
Longitude
Unknown
Altitude
Unknown
Speed
Unknown
Apparent Right ascension
Unknown
Apparent Declination
Unknown
Sunlit
N/A
Visualization observer readout
Local Sidereal Time
13:00:58
Azimuth
Unknown
Elevation
Unknown
Doppler factor
Unknown
Orbital elements
Apogee altitude
1,131.707 km
Perigee altitude
787.823 km
Semi-major axis
7,337.902 km
Eccentricity
0.02343
Inclination
89.0476°
RAAN
310.4603°
Arg. of periapsis
68.8957°
True anomaly
291.22161°
Mean anomaly
293.7086°
Eccentric anomaly
292.46795°
Mean motion
3.45291 °/min
Orbital period
104.26 mins
BSTAR
0.0010212
Loading maneuver chart data...
Computing Atmospheric mass density...
Loading historical data...
Loading historical data...
Loading historical data...
Loading historical data...
Loading historical data...
Loading historical data...
Loading historical data...

Documentation

Showing up to 5 results
|